Location: Evansville
(37.9747°N, 87.5558°W)
Time: 18:28:47
(UTC-06:00)

ARIANE 6 FM1 Upper Stage - Pass Details

Date: 18 December 2025
Orbit: 522 x 610 km, 62.0° (Epoch: 13 January)

Event Time Altitude Azimuth Distance (km) Brightness Sun altitude
Exits shadow 05:23:50 45° 304° (NW) 738 2.8 -18.5°
Maximum altitude 05:23:55 45° 308° (NW) 737 2.8 -18.5°
Drops below altitude 10° 05:27:45 10° 22° (NNE) 1,774 5.3 -17.8°
Sets 05:30:00 0° 29° (NNE) 2,660 6.3 -17.3°
